GFSSGP_925_rhum_336.txt.gz
RH
98 99 97 91 84 79 77 66 53 54 53 47 46 53 66 78 70 60 83 64 55 64 75 83 88 95 92 76 86 75 84 94 96 88 93 95 95 95 95 96 95 97 91 91 95 95 95 94 92
96 85 79 91 79 81 78 59 62 58 55 53 52 60 72 84 80 92 78 74 58 65 80 83 80 75 80 76 90 87 92 94 91 89 88 94 95 94 92 96 95 96 94 96 95 95 94 92 95
95 89 91 78 79 78 77 58 59 55 48 48 60 61 70 87 82 82 73 69 62 74 81 86 85 85 84 83 83 87 92 92 88 87 88 96 96 96 96 97 92 96 96 96 94 94 94 95 94
98 80 80 74 64 58 62 58 48 49 43 48 56 71 67 66 75 73 73 64 67 73 78 89 90 76 87 87 84 78 78 83 88 92 92 90 94 94 95 93 96 94 96 95 95 94 87 78 77
80 83 76 64 57 55 54 48 46 50 53 52 53 74 82 67 68 79 71 67 66 70 80 86 85 94 88 87 81 83 78 81 82 83 84 97 96 92 97 96 95 96 96 96 90 76 75 78 75
88 80 70 65 52 48 52 48 45 52 56 56 64 72 74 78 80 87 80 74 72 74 86 88 83 86 87 96 89 83 79 80 81 91 94 96 96 95 96 96 96 96 96 95 86 75 73 75 72
84 84 62 53 55 54 56 45 51 53 57 60 54 76 75 76 82 84 74 72 77 80 85 88 86 88 89 97 82 78 80 80 88 87 94 92 93 88 93 94 96 96 95 95 95 74 70 71 72
88 85 49 49 54 49 47 42 43 50 51 45 46 72 80 70 80 79 78 76 80 93 87 80 86 91 91 92 90 81 87 88 86 92 95 92 93 92 96 87 93 95 95 96 96 85 74 73 72
65 61 56 48 48 48 44 47 42 38 48 43 44 56 60 74 78 82 90 88 91 95 92 83 82 86 80 73 84 96 89 82 87 92 91 84 84 96 95 84 96 97 96 95 97 78 66 68 90
67 63 47 40 39 48 42 43 44 46 48 47 62 59 69 81 81 89 94 97 92 91 96 88 89 79 75 74 81 89 91 95 93 87 91 85 92 83 79 86 95 95 92 93 89 62 65 77 82
64 48 39 35 37 39 42 43 37 48 52 50 65 71 72 81 82 86 86 85 86 85 89 82 87 82 85 77 77 80 81 84 86 79 85 85 85 75 79 83 91 90 86 86 90 68 49 58 69
47 39 37 37 38 41 43 40 42 44 42 44 58 64 69 77 79 81 79 78 78 81 72 80 83 77 76 75 78 72 69 65 71 75 77 76 81 79 75 77 75 73 71 72 70 62 53 57 65
38 37 34 36 37 40 38 43 42 43 44 53 59 62 68 72 73 75 73 76 72 74 68 74 77 72 65 72 69 66 65 56 62 72 80 81 81 71 66 66 64 68 71 66 58 66 63 62 63
32 35 34 36 38 38 44 43 39 40 43 58 61 65 65 67 68 70 70 71 69 67 59 55 61 63 64 62 63 59 61 56 63 74 78 80 77 75 62 58 59 64 67 70 69 68 70 70 71
33 33 32 34 37 40 39 45 44 42 40 53 61 62 62 60 60 65 66 68 65 60 61 56 55 59 60 59 62 60 59 65 69 71 73 76 71 70 68 68 68 67 68 70 71 70 69 69 72
34 34 36 31 36 38 37 45 46 43 41 46 47 52 56 57 56 58 58 59 62 65 62 60 57 63 63 64 65 65 63 64 67 69 72 75 70 74 72 67 68 69 69 72 75 78 76 68 73
36 41 40 34 36 41 41 46 47 43 43 44 46 45 48 55 50 49 50 53 53 58 59 60 60 60 63 65 66 68 70 72 71 70 69 71 71 68 70 73 68 71 67 68 69 76 78 76 70
36 42 38 35 36 37 44 47 48 44 43 44 46 44 46 48 48 43 45 49 49 53 55 56 60 61 62 66 68 69 73 73 72 71 65 67 68 69 69 71 68 72 69 69 68 69 74 75 61
24 36 37 35 35 35 42 43 51 45 43 46 47 46 46 46 40 39 42 50 56 56 55 55 55 58 61 65 69 71 68 63 65 68 66 63 67 68 66 71 70 70 68 66 69 72 75 67 61
22 29 38 36 36 30 40 40 43 45 43 42 43 47 45 42 42 42 45 52 54 54 54 54 52 53 57 62 64 67 63 58 55 60 65 65 65 67 67 69 70 71 69 70 69 73 79 81 81
15 30 33 32 37 33 38 43 46 43 42 41 40 40 42 44 44 50 51 51 51 54 55 54 51 52 56 59 64 65 63 59 55 56 60 62 64 66 68 68 70 69 69 70 72 72 76 78 81
10 19 24 42 41 39 33 48 35 49 46 42 39 39 44 46 45 49 52 55 52 50 52 53 52 54 55 60 64 63 57 58 54 52 51 55 60 65 67 67 66 68 70 70 69 70 77 81 83
10 8 20 34 27 15 26 30 23 44 53 46 39 36 36 44 43 49 49 49 50 52 48 46 52 56 56 56 55 56 53 52 52 53 54 54 56 60 61 64 65 68 68 70 74 73 72 78 80
10 10 15 18 17 16 15 32 18 47 37 39 40 38 34 41 38 50 40 44 54 54 52 51 50 52 52 54 53 54 56 56 57 55 56 55 56 58 59 61 64 67 66 66 70 77 85 82 79
10 14 19 16 17 16 17 21 19 19 21 34 39 43 36 39 40 53 59 51 50 55 54 52 52 56 56 56 57 56 59 64 66 62 58 57 59 61 60 66 65 66 65 66 66 66 69 73 78
10 13 18 14 18 17 21 20 19 39 41 34 37 46 41 41 39 43 51 55 49 53 51 59 67 70 65 62 61 60 61 60 66 66 64 61 60 60 63 63 65 67 69 68 62 64 57 64 72
10 11 12 19 21 24 24 39 36 38 36 39 47 49 48 50 46 46 49 47 50 55 57 66 68 63 57 53 56 54 55 58 60 70 72 67 64 65 66 64 69 70 76 74 58 56 55 49 53
8 10 11 17 18 21 33 36 54 38 33 33 34 44 47 45 44 46 45 40 47 55 64 65 52 41 36 67 58 53 56 62 62 63 72 74 67 67 71 66 67 73 73 77 77 59 56 58 55
9 10 16 18 28 39 51 52 36 43 37 33 32 35 38 44 58 62 56 61 61 66 64 61 54 45 38 40 58 53 54 48 48 56 71 79 77 67 68 71 76 76 76 80 82 67 77 76 64
8 9 14 16 16 37 46 38 23 42 39 35 38 48 53 57 63 71 80 78 77 76 75 74 68 57 46 42 66 61 56 39 45 61 72 81 78 73 76 77 76 78 83 81 74 64 76 88 65

GFSSGP_925_rhum_339.txt.gz
RH
99 96 96 91 71 56 59 53 47 47 45 42 40 47 55 63 58 54 70 68 64 70 83 90 87 85 90 72 70 84 89 84 89 82 84 94 91 90 83 94 95 94 94 92 92 95 94 95 93
98 96 87 81 58 55 60 50 52 43 45 42 48 53 61 71 67 69 61 70 65 72 79 83 82 86 86 85 76 82 91 92 87 86 83 86 87 85 87 95 94 94 95 96 96 94 90 95 93
98 85 86 62 60 62 60 52 51 48 43 43 53 50 55 67 66 58 70 70 72 80 80 84 79 86 78 76 87 89 83 78 81 80 86 88 87 88 95 93 97 97 95 95 94 95 94 93 94
99 87 73 56 55 55 50 48 46 46 43 42 42 53 56 61 60 70 77 72 72 83 81 84 77 77 88 77 85 78 80 76 75 80 86 84 81 98 97 93 95 92 96 94 95 95 95 95 93
95 74 59 51 52 48 46 43 41 45 46 43 40 57 63 69 74 76 75 72 74 83 85 90 85 88 81 78 77 84 78 79 76 87 86 88 84 96 93 95 93 93 92 97 94 92 86 83 79
80 68 52 49 48 48 44 41 42 45 46 46 46 55 67 79 76 78 75 75 76 80 85 91 85 77 87 77 81 78 75 82 82 90 96 84 95 95 90 82 82 88 95 95 92 85 80 77 73
71 59 48 46 53 53 46 38 42 45 40 46 44 53 67 72 79 81 77 77 77 87 89 89 91 91 87 73 79 83 76 76 85 94 78 95 89 92 85 89 84 93 95 95 94 81 78 73 71
68 56 43 43 48 51 42 39 39 36 46 39 37 48 61 71 83 79 78 77 79 88 90 95 93 90 92 84 79 85 80 87 88 89 87 93 83 89 87 86 93 95 92 95 89 75 74 77 73
56 41 42 39 42 47 37 43 38 35 40 39 43 42 50 75 78 72 74 77 80 93 92 90 89 91 88 91 83 85 88 82 84 89 92 91 94 95 92 85 90 88 87 78 82 80 74 77 75
46 48 42 35 33 42 38 38 39 42 41 46 51 56 68 72 70 66 64 64 72 81 88 88 91 86 84 80 84 94 97 90 93 93 89 90 88 96 89 88 87 84 86 82 78 76 80 78 83
50 37 35 33 31 35 37 38 34 41 45 42 48 60 62 61 62 65 62 61 67 72 78 86 90 96 86 83 84 88 90 91 94 92 94 89 94 90 88 91 89 89 89 83 80 85 62 64 76
34 33 33 34 35 36 37 34 39 37 36 32 41 51 56 54 56 59 62 62 69 74 78 78 87 94 92 87 86 89 85 89 86 91 75 86 85 90 91 92 84 86 88 88 91 83 85 64 71
32 32 32 33 34 34 34 37 38 37 40 36 47 52 50 52 57 62 64 59 63 65 69 74 86 94 94 89 93 89 87 82 82 88 80 89 91 93 77 83 86 87 87 83 65 68 70 62 72
30 29 30 33 35 35 38 39 35 38 42 46 49 50 48 50 54 60 64 58 60 60 62 67 81 88 84 88 81 85 82 80 82 82 88 76 94 89 90 80 78 75 73 83 73 72 71 69 72
27 29 28 32 35 37 34 44 39 37 39 46 46 48 49 51 54 58 60 59 60 60 64 63 73 80 85 87 79 84 76 73 75 79 73 77 79 76 75 83 76 77 77 69 73 71 71 72 71
27 27 32 30 35 35 34 37 39 37 40 44 46 50 52 51 52 55 58 59 62 60 67 68 63 66 75 79 79 81 77 77 78 79 75 71 73 72 73 82 78 80 72 81 72 72 71 68 71
30 32 31 31 31 34 34 38 40 36 34 41 46 46 47 50 52 53 56 58 58 62 68 71 69 68 72 68 72 76 81 72 79 81 82 72 70 71 72 78 78 70 81 83 83 80 72 80 78
21 32 32 29 28 32 36 33 39 37 35 36 39 38 43 46 46 49 52 53 55 61 67 68 68 66 59 71 69 82 82 84 76 84 84 68 72 71 70 76 68 70 79 75 82 71 70 78 71
17 21 24 30 28 30 31 32 35 36 37 36 35 36 37 38 35 42 45 47 51 59 65 64 62 60 68 79 79 78 75 77 80 76 65 69 66 67 69 76 75 70 71 70 70 80 74 88 87
18 20 21 33 31 28 33 31 32 36 36 34 34 34 35 32 33 37 39 42 49 53 62 67 62 59 59 75 77 76 75 74 72 68 61 64 65 64 66 69 76 70 71 71 73 71 76 85 84
14 15 26 27 32 29 30 26 33 33 34 35 32 31 29 30 32 34 39 41 46 51 61 62 53 56 55 62 70 67 69 71 67 61 59 57 61 63 64 67 69 69 71 82 71 72 74 80 89
10 14 23 31 27 26 28 18 27 31 36 38 33 32 30 30 32 32 34 40 46 50 58 62 56 54 54 56 70 73 67 64 64 65 64 52 54 59 61 64 67 69 79 84 85 85 84 94 82
11 17 25 29 22 17 29 21 18 27 31 35 34 31 29 29 29 30 32 33 39 48 55 59 61 57 53 51 58 73 74 68 67 67 57 52 52 54 58 62 63 67 81 82 78 86 86 90 88
9 10 14 16 14 16 15 21 11 13 20 21 29 30 29 26 28 31 33 36 40 46 54 58 66 50 56 55 57 62 73 74 69 69 67 65 68 69 57 58 62 64 66 67 71 67 76 70 78
8 8 12 13 16 12 14 24 13 14 16 21 23 29 30 28 28 30 36 40 41 47 52 55 69 67 62 66 61 61 65 63 64 64 68 70 66 70 69 60 64 74 66 65 67 73 80 78 74
9 8 11 16 13 13 19 17 11 26 28 26 24 24 29 29 27 27 31 40 46 50 54 56 68 65 56 55 54 53 55 57 55 56 66 70 68 73 60 60 62 62 63 64 69 78 75 72 78
10 10 8 11 15 12 15 21 24 29 26 31 28 29 28 28 30 31 31 39 45 51 55 58 74 56 44 46 51 57 58 59 75 75 60 70 65 71 62 64 64 66 66 66 72 75 74 72 80
8 8 9 12 18 18 20 28 18 28 27 30 30 27 30 32 36 34 34 35 43 44 51 61 58 43 28 63 71 72 59 71 76 82 69 64 66 69 72 71 69 71 74 73 77 79 82 91 88
9 9 11 11 15 15 18 17 24 28 27 26 26 26 28 33 43 43 43 45 46 51 59 59 55 39 30 60 81 73 56 70 67 64 53 56 79 77 76 79 74 72 75 82 88 83 89 94 99
8 8 8 9 18 24 28 16 21 26 23 23 23 27 34 42 43 46 51 62 59 61 62 61 59 55 52 56 68 64 81 68 56 46 49 84 66 74 81 94 77 78 78 87 93 88 92 77 77

GFSSGP_925_rhum_342.txt.gz
RH
89 90 84 71 53 34 40 43 36 36 37 33 35 38 42 44 47 57 38 43 48 54 66 80 82 90 71 72 73 74 78 79 87 85 78 85 89 84 93 96 96 95 86 94 96 93 95 95 94
86 84 73 54 43 34 44 37 37 33 34 34 38 42 45 55 41 40 40 45 48 53 56 68 80 81 74 76 83 72 94 82 79 82 80 84 79 83 76 90 92 93 97 97 93 92 94 93 95
81 83 78 43 35 42 45 39 39 36 34 36 44 33 38 51 37 37 41 45 49 53 52 74 80 88 82 88 83 76 79 76 78 79 84 82 84 85 91 96 96 96 94 94 91 95 93 94 95
85 67 53 41 42 41 40 39 37 38 35 33 30 42 40 38 40 42 45 45 50 54 54 74 77 83 79 82 82 80 79 82 78 81 79 78 88 86 92 94 88 97 94 95 96 94 94 95 96
87 53 36 35 41 38 34 34 32 35 35 33 26 39 47 50 49 47 47 46 51 54 61 74 75 68 71 82 83 83 78 78 81 82 81 87 94 93 89 94 97 93 92 95 91 87 83 76 85
60 46 30 34 40 38 34 31 30 32 35 32 31 38 51 52 47 47 46 48 52 54 59 74 74 76 70 82 79 86 85 85 78 82 80 90 80 89 83 93 86 93 94 93 94 81 77 74 73
49 30 29 29 39 42 39 30 32 30 32 30 26 37 46 46 49 49 49 50 52 61 69 70 72 80 74 82 79 78 87 80 94 95 91 89 92 95 93 90 77 95 94 90 78 75 78 73 70
41 28 30 30 33 41 33 32 27 27 32 26 26 36 50 47 52 49 49 50 57 63 62 66 80 82 69 72 87 84 82 87 95 90 92 94 78 78 76 76 90 93 92 93 85 73 74 74 74
35 24 28 29 31 36 31 34 29 25 31 32 29 27 37 50 48 46 47 51 58 60 60 59 62 69 76 72 80 78 76 77 74 72 79 82 88 86 69 81 85 92 95 75 70 71 73 72 70
28 22 28 25 25 31 30 30 32 30 30 34 38 39 45 48 46 40 41 43 50 54 58 58 59 59 64 61 73 80 71 76 69 77 78 64 83 79 66 73 78 81 82 74 69 69 66 71 69
27 28 27 25 22 26 30 31 28 29 33 31 39 43 44 43 42 36 35 36 42 52 55 62 65 68 59 60 65 62 63 63 70 78 73 70 69 66 61 66 81 79 76 76 75 76 71 72 69
23 26 26 26 26 27 28 28 30 29 28 26 30 35 38 38 38 37 35 37 42 48 53 54 61 69 62 62 60 62 60 62 59 68 77 72 64 69 71 64 69 71 68 71 65 57 68 67 65
20 25 25 26 27 25 26 29 29 30 26 24 30 34 34 33 38 40 39 40 40 43 49 50 61 74 72 75 64 58 55 60 60 68 70 65 62 67 67 67 65 68 66 62 68 68 71 70 76
22 23 24 26 28 28 29 30 27 32 24 28 32 33 32 34 37 42 43 41 41 40 41 48 59 70 68 68 74 62 56 53 62 66 66 80 70 69 65 64 65 66 65 65 68 72 71 69 71
22 23 24 26 28 31 28 35 29 31 26 30 32 32 32 34 37 42 44 43 42 41 41 45 55 60 68 70 72 62 57 49 56 64 77 78 77 83 78 66 65 64 66 74 70 79 69 76 70
22 21 21 25 28 29 28 36 32 28 27 29 30 32 34 34 36 40 43 44 46 43 46 48 48 51 60 60 67 59 58 57 58 61 64 77 82 85 76 68 62 62 66 65 70 70 71 69 77
20 17 19 23 24 24 26 31 32 26 25 26 29 30 32 35 38 39 42 44 44 48 52 55 55 53 57 67 66 68 63 63 61 63 64 70 77 80 69 67 63 72 65 61 62 64 73 70 72
16 14 17 18 22 25 24 23 30 27 25 25 27 26 30 32 34 37 40 42 44 47 54 59 58 60 65 65 72 66 64 65 68 67 64 69 71 76 79 67 72 73 69 71 68 72 72 75 68
12 12 14 17 20 23 21 20 27 27 27 26 24 25 26 28 26 31 35 38 40 45 51 58 64 63 68 67 64 62 60 61 63 64 72 82 78 76 80 71 69 76 76 76 75 70 76 72 71
11 12 12 18 21 22 21 20 21 25 26 26 24 25 24 21 22 27 31 33 37 40 48 55 61 69 73 64 64 60 59 55 56 59 66 77 77 77 78 78 69 76 69 74 78 75 74 65 68
11 9 11 13 22 20 21 16 20 21 23 24 23 22 22 23 24 24 28 29 31 36 43 52 61 64 71 64 67 70 70 68 63 59 61 64 75 77 79 79 70 71 78 66 78 75 77 70 61
8 10 13 17 16 14 16 14 13 16 23 25 22 23 22 22 22 23 24 28 29 33 39 48 58 64 68 70 60 66 57 52 48 52 50 55 67 71 72 76 79 81 68 67 71 72 78 76 61
10 14 13 13 13 10 15 13 14 14 18 21 22 21 20 21 21 21 22 23 27 31 37 44 56 63 63 69 64 64 67 53 55 54 57 60 60 67 66 70 76 78 73 67 75 71 73 71 76
8 11 12 12 10 11 9 10 8 9 9 11 16 18 19 19 19 21 22 23 24 29 36 41 53 65 68 69 74 69 59 61 55 57 56 54 49 51 63 69 74 80 79 76 69 75 72 78 76
7 8 9 11 10 10 9 11 8 9 10 11 13 16 18 20 20 21 23 24 25 27 34 40 50 63 66 68 68 70 69 68 67 68 57 54 49 48 51 66 76 71 72 80 79 75 80 78 81
8 7 8 16 11 9 12 10 9 10 13 14 14 17 14 14 16 18 21 26 29 31 35 40 45 58 62 64 67 69 71 66 62 62 60 57 53 51 55 64 70 74 78 79 83 80 71 78 78
9 9 6 7 7 8 7 9 10 11 13 13 13 14 10 11 18 22 21 25 32 33 37 40 43 53 59 57 66 70 71 70 56 62 65 65 69 66 70 78 76 76 81 85 86 78 80 84 83
8 6 8 8 13 13 9 11 11 14 13 15 14 12 10 12 17 18 23 25 30 34 36 40 43 50 55 52 56 62 66 71 69 71 72 69 69 74 83 90 90 86 85 88 92 80 80 92 84
8 9 8 6 7 10 11 9 7 13 12 14 13 10 13 14 17 21 26 29 30 34 34 37 44 50 60 50 50 56 58 66 79 69 67 69 67 70 84 93 91 89 90 91 93 92 92 92 84
7 7 7 9 11 8 10 9 11 10 11 11 13 12 15 17 21 28 34 39 39 40 39 45 45 46 40 42 58 62 64 74 67 62 64 68 65 76 86 91 93 91 92 92 93 92 85 84 82

GFSSGP_925_rhum_345.txt.gz
RH
79 73 70 60 71 60 41 33 27 31 32 28 29 32 35 36 46 49 32 34 39 48 66 79 86 88 80 74 71 75 81 90 83 94 83 91 83 86 98 94 94 92 97 95 94 86 94 86 96
66 66 61 52 84 33 37 27 30 31 29 29 29 30 38 39 28 30 33 39 40 45 53 66 77 64 70 73 68 65 73 76 84 84 81 77 84 84 93 88 93 95 97 93 94 93 93 95 94
71 69 56 53 29 40 36 28 29 30 29 31 31 27 31 34 27 30 36 38 40 44 52 78 78 65 71 80 77 81 76 78 79 87 80 85 91 86 96 93 97 82 85 90 93 92 95 95 94
59 53 63 44 34 29 30 29 28 29 28 23 28 36 28 29 30 32 36 37 42 60 68 70 70 69 76 83 89 96 96 74 79 85 87 96 91 92 95 88 96 96 96 85 93 93 94 96 95
61 44 45 31 30 27 26 25 24 27 26 23 24 36 41 34 32 34 35 36 42 57 59 73 76 86 83 92 96 93 90 97 90 89 95 90 94 93 94 76 94 94 94 85 78 80 82 93 91
54 41 50 32 30 27 26 23 23 25 25 24 29 36 39 34 33 34 34 39 48 52 54 67 70 81 96 91 94 95 94 87 80 90 96 83 92 83 93 96 92 83 90 78 73 74 74 76 82
47 30 24 24 28 32 30 22 23 24 24 24 22 37 36 33 34 34 36 38 46 52 50 59 70 79 91 79 97 88 88 79 91 92 91 95 90 97 95 93 95 80 89 94 82 84 75 69 76
33 19 24 24 26 31 25 23 20 22 25 20 20 35 41 34 35 35 36 39 50 56 50 64 67 63 67 80 88 96 91 94 90 96 93 75 87 75 72 77 91 93 93 95 78 75 70 74 75
24 35 24 25 28 28 23 25 23 21 24 23 20 25 31 35 34 34 36 41 51 50 45 53 63 66 64 75 80 77 75 79 76 75 72 82 83 76 81 81 87 93 93 83 71 69 66 66 65
27 19 21 18 19 24 23 24 25 24 26 29 30 28 32 34 32 32 38 38 43 43 43 45 52 51 54 52 76 76 71 74 74 66 70 79 67 68 56 72 80 76 77 63 61 62 63 88 76
15 22 17 16 18 20 22 24 21 24 28 28 34 33 31 32 30 30 31 34 36 40 43 46 48 48 49 51 54 54 57 52 64 66 69 65 63 55 65 68 71 79 67 75 62 63 65 70 71
17 18 18 18 17 18 22 21 22 23 23 23 27 28 29 28 26 27 27 30 35 42 44 45 50 53 45 49 49 45 46 46 50 61 67 63 64 56 54 61 70 62 51 54 53 52 70 60 70
14 18 18 20 19 17 18 20 21 23 22 22 25 26 28 26 28 26 26 30 36 38 40 42 49 59 53 55 46 44 46 47 46 55 57 52 54 58 52 55 62 62 62 60 54 61 70 58 73
15 15 18 20 20 20 21 21 19 22 21 24 25 25 26 26 28 29 29 30 31 33 38 41 51 63 58 56 54 46 42 43 47 48 57 69 58 54 52 50 56 61 62 68 65 67 73 66 71
16 18 16 18 21 24 20 27 23 20 21 26 26 25 26 27 31 33 32 32 30 32 35 42 47 54 59 59 62 51 45 41 46 51 66 66 67 64 70 52 54 62 64 60 60 69 75 77 79
18 20 16 17 19 20 25 29 24 19 22 26 25 26 28 28 30 34 35 35 34 32 36 40 40 44 52 51 58 49 49 44 46 49 57 68 71 77 76 64 60 61 62 65 63 63 69 70 68
15 13 13 18 16 15 22 26 23 20 18 24 26 26 27 29 29 33 35 37 37 38 42 44 44 44 50 55 57 56 53 53 49 51 54 68 66 69 72 66 62 61 62 61 63 64 73 71 68
12 10 10 15 16 17 15 19 22 20 19 20 23 24 27 28 29 31 33 35 36 41 46 50 51 51 55 60 63 54 51 52 51 53 53 61 61 64 71 67 61 67 59 61 63 72 68 71 72
8 9 10 10 11 15 14 19 22 19 20 20 20 20 23 24 24 27 30 32 34 39 45 51 54 58 60 58 56 51 48 48 53 55 58 64 68 66 69 64 65 71 68 69 72 68 67 68 67
8 8 9 9 10 12 13 14 18 19 19 18 18 20 19 20 21 24 26 28 31 35 41 49 55 60 65 58 55 47 45 43 46 49 57 65 72 70 71 71 66 72 61 68 71 75 68 56 61
7 8 8 12 10 10 11 14 15 16 18 18 16 16 17 18 19 21 23 24 28 30 39 45 54 60 65 56 58 59 57 57 52 51 52 55 67 70 69 71 70 71 70 56 67 74 69 59 52
8 7 8 9 10 28 10 23 13 14 17 18 16 16 16 17 17 18 19 21 23 27 33 41 51 58 65 66 53 58 52 48 45 46 44 46 57 61 63 66 71 78 67 61 63 66 71 70 62
8 7 7 8 10 7 9 9 11 11 14 15 15 14 14 15 16 18 18 19 20 24 29 36 48 57 58 65 61 55 61 47 48 47 50 54 53 59 62 62 67 71 70 63 67 68 72 73 74
6 8 8 8 8 10 8 8 9 7 10 11 12 12 13 14 15 16 17 18 20 22 27 32 45 58 63 63 69 62 53 56 47 48 49 50 48 48 60 62 65 71 72 71 72 74 75 78 73
7 7 9 9 8 8 6 7 8 7 6 7 9 11 12 14 15 16 17 17 20 22 26 30 41 56 61 62 63 69 63 61 58 61 54 50 45 42 43 58 67 68 72 77 75 79 77 80 75
8 7 8 13 10 8 7 8 7 6 6 6 7 9 10 11 12 14 16 18 19 21 25 30 35 51 57 61 64 65 67 61 59 57 54 50 48 46 51 52 59 63 68 73 74 74 70 64 71
9 9 6 6 6 8 7 6 8 6 8 8 7 9 9 7 8 10 12 18 20 22 24 29 33 44 50 54 62 66 67 66 53 54 54 56 59 58 63 68 71 75 75 75 76 72 69 72 75
8 7 7 6 11 12 7 8 8 9 8 8 8 9 6 7 9 13 14 16 21 23 24 29 33 38 45 44 53 59 62 68 65 62 61 59 58 57 64 75 80 83 84 82 81 75 70 78 73
8 9 8 6 6 9 10 8 6 10 8 8 8 9 7 8 9 10 12 16 21 26 26 28 33 37 44 47 43 50 53 59 65 64 65 68 66 64 68 72 82 85 83 84 86 84 82 81 76
7 7 7 8 10 7 7 9 6 8 7 8 8 9 9 10 11 13 16 18 20 24 28 31 34 37 41 47 43 44 51 54 51 63 64 61 63 65 65 75 84 85 84 84 86 83 72 75 76